Regional Weather Roundup
Issued by NWS

Home | Current Version | Previous Version | Text Only | Print | Product List | Glossary Off
Versions: 1 2 3 4 5 6 7 8 9 10 11 12 13 14 15 16 17 18 19 20 21 22 23 24 25 26 27

000
ASUS43 KDMX 240507
RWRIA

WEATHER ROUNDUP FOR IOWA
NATIONAL WEATHER SERVICE DES MOINES IA
1200 AM CDT FRI OCT 24 2014

NOTE: "FAIR" INDICATES FEW OR NO CLOUDS BELOW 12,000 FEET WITH NO
SIGNIFICANT WEATHER AND/OR OBSTRUCTIONS TO VISIBILITY.

* - THESE STATIONS ARE NOT NWS STATIONS...THUS NOT UNDER NWS
QUALITY CONTROL.  THEY ALSO DO NOT REPORT WEATHER SUCH
AS PRECIPITATION OR FOG.

IAZ001>003-012>014-020>022-031>034-043>046-240600-
   NORTHWEST IOWA

CITY           SKY/WX    TMP DP  RH WIND       PRES   REMARKS
CARROLL *      CLEAR     46  43  87 CALM      30.01F
CHEROKEE *     PTCLDY    52  46  82 SE7       29.98F
DENISON *      CLEAR     50  46  87 CALM      29.99S
LE MARS *      CLEAR     52  46  82 S6        29.96F
ORANGE CITY *  CLEAR     52  45  76 S6        29.95F
SHELDON *      CLEAR     52  46  82 S7        29.94F
SIOUX CITY     MOCLDY    50  46  86 E7        29.97F
SPENCER        MOCLDY    47  42  83 SE7       29.97F
STORM LAKE *   CLEAR     50  43  76 S10       30.00F
$$

IAZ055>058-069>071-079>083-090>094-240600-
   SOUTHWEST IOWA

CITY           SKY/WX    TMP DP  RH WIND       PRES   REMARKS
ATLANTIC *     MOCLDY    46  45  93 CALM      30.02S
AUDUBON *      CLEAR     45  39  81 CALM      30.03S
CLARINDA *     CLEAR     48  48 100 CALM      30.06S
COUNCIL BLFS * CLEAR     57  52  82 S8        30.01S
CRESTON *      CLEAR     54  54 100 S7        30.05S FOG
HARLAN  *      CLEAR     46  46 100 CALM      30.05S
LAMONI         FOG       57  56  96 SW8       30.05F VSB 1/4
RED OAK *      PTCLDY    48  48 100 CALM      30.03S
SHENANDOAH *     N/A     50  48  93 CALM      30.04S
$$

IAZ047>049-059>061-072>074-084-240600-
   CENTRAL IOWA

CITY           SKY/WX    TMP DP  RH WIND       PRES   REMARKS
AMES           FOG       47  45  93 SE3       30.03S VSB 1/4
ANKENY *       FOG       50  50 100 S3        30.03S VSB 0
CHARITON *     FOG       55  54  94 S6        30.05S VSB 0
DES MOINES     FOG       55  53  93 S9        30.04R VSB 1/2
GRINNELL*      CLEAR     52  50  93 SW6       30.05S FOG
KNOXVILLE *    PTCLDY    54  54 100 S8        30.03F FOG
MARSHALLTOWN   FOG       44  44 100 S3        30.03S VSB 1/4
PELLA *        FOG       53  52  98 S3        30.06S VSB 1/4
PERRY *          N/A     46  45  93 S3        30.02F
$$

IAZ004>006-015-016-023>025-035-036-240600-
   NORTH CENTRAL IOWA

CITY           SKY/WX    TMP DP  RH WIND       PRES   REMARKS
ALGONA *       CLEAR     50  45  81 S9        30.01S
CLARION *      CLEAR     50  50 100 S7        30.01F
ESTHERVILLE    MOCLDY    45  42  89 S8        29.97F
FORT DODGE *   PTCLDY    46  41  81 CALM      30.01F
FOREST CITY *  CLEAR     39  39 100 CALM      30.01S
IOWA FALLS *     N/A     52  52 100 S7        30.03F FOG
$$

IAZ007>011-017>019-026>030-037>042-050>054-066-240600-
   NORTHEAST IOWA

CITY           SKY/WX    TMP DP  RH WIND       PRES   REMARKS
CEDAR RAPIDS   FOG       44  44 100 CALM      30.04F VSB 1/4
CHARLES CITY * FOG       46  46 100 SE7       30.03F VSB 0
CLINTON *      CLOUDY    50  46  87 CALM      30.07F
DECORAH *      FOG       50  50 100 CALM      30.03S VSB 0
DUBUQUE        CLOUDY    51  50  96 SW5       30.05S
MONTICELLO *   FOG       45  45 100 CALM      30.04F VSB 0
OELWEIN *      FOG       45  45 100 SE5       30.05S VSB 0
WATERLOO       FOG       47  47 100 SE6       30.03F VSB 1/4
$$

IAZ064-065-067-068-078-240600-
   EAST CENTRAL IOWA

CITY           SKY/WX    TMP DP  RH WIND       PRES   REMARKS
DAVENPORT      CLEAR     50  46  86 SW6       30.05F
IOWA CITY      FOG       45  45 100 CALM      30.06F VSB 1/4
MT. PLEASANT * CLEAR     50  50 100 S3        30.06F
MUSCATINE *    CLEAR     48  46  93 CALM      30.06S
QUAD CITIES    PTCLDY    54  48  80 W3        30.05S
$$

IAZ062-063-075>077-085>089-095>099-240600-
   SOUTHEAST IOWA

CITY           SKY/WX    TMP DP  RH WIND       PRES   REMARKS
BURLINGTON     MOCLDY    54  52  93 S6        30.06F
FAIRFIELD *    CLOUDY    46  46 100 SW5       30.05F
FORT MADISON * CLOUDY    55  54  94 S5        30.07S
KEOKUK *       CLEAR     52  50  93 S6        30.06S
OSKALOOSA *    FOG       43  43 100 S5        30.05S VSB 1/4
CENTERVILLE *  FOG       52  52 100 S5        30.07F VSB 1/2
OTTUMWA        FOG       50  49  96 S5        30.05F VSB 1/4
WASHINGTON *   FOG       46  46 100 CALM      30.05F VSB 0
$$

ABBREVIATIONS USED IN REMARKS
   TC - TEMPERATURES IN CELSIUS
  WCI - WIND CHILL INDEX
   HX - HEAT INDEX
  VSB - VISIBILITY
$$




USA.gov is the U.S. government's official web portal to all federal, state and local government web resources and services.